Weather History for New Iberia, LA

Change the Weather History Date:

Saturday, January 4, 2014

  Actual Average Record
Temperature  
Mean Temperature 47 °F 53 °F  
Max Temperature 64 °F 63 °F 78 °F (1997)
Min Temperature 30 °F 43 °F 20 °F (1979)
Degree Days  
Heating Degree Days 18 13  
Month to date heating degree days 76 52  
Since 1 July heating degree days 711 599  
Cooling Degree Days 0 1  
Month to date cooling degree days 0 4  
Year to date cooling degree days 0 4  
Moisture  
Dew Point 37 °F    
Average Humidity 71    
Maximum Humidity 86    
Minimum Humidity 56    
Precipitation  
Precipitation 0.00 in 0.19 in 4.04 in (2007)
Month to date precipitation 0.50 0.73  
Year to date precipitation 0.50 0.73  
Sea Level Pressure  
Sea Level Pressure 30.15 in    
Wind  
Wind Speed 8 mph (ESE)    
Max Wind Speed 16 mph    
Max Gust Speed 18 mph    
Visibility 10 miles    
Events      
T = Trace of Precipitation, MM = Missing Value Source: NWS Daily Summary

Daily Weather History Graph

Daily Weather History Graph

Search for Another Location

Airport:

Trip Planner

Search our weather history database for the weather conditions in past years. The results will help you decide how hot, cold, wet, or windy it might be!

Date:

Astronomy

Jan. 04, 2014 Rise Set
Actual Time 7:04 AM CST 5:21 PM CST
Civil Twilight 6:37 AM CST 5:47 PM CST
Nautical Twilight 6:08 AM CST 6:17 PM CST
Astronomical Twilight 5:39 AM CST 6:46 PM CST
Moon 9:27 AM CST (1/4) 9:21 PM CST (1/4)
Length of Visible Light 11h 09m
Length of Day
10h 16m
Waxing Crescent, 15% of the Moon is Illuminated
Jan 4
Waxing Crescent
Jan 7
First Quarter
Jan 15
Full
Jan 23
Last Quarter
Jan 30
New

Hourly Weather History & Observations

Time (CST) Temp. Windchill Dew Point Humidity Pressure Visibility Wind Dir Wind Speed Gust Speed Precip Events Conditions
12:53 AM 32.0 °F 28.7 °F 25.0 °F 75% 30.27 in 10.0 mi ESE 3.5 mph - N/A   Clear
1:53 AM 30.9 °F 26.2 °F 24.1 °F 76% 30.25 in 10.0 mi ESE 4.6 mph - N/A   Clear
2:53 AM 33.1 °F - 25.0 °F 72% 30.24 in 10.0 mi Calm Calm - N/A   Clear
3:53 AM 33.1 °F 30.0 °F 24.1 °F 70% 30.23 in 10.0 mi East 3.5 mph - N/A   Clear
4:53 AM 33.1 °F 30.0 °F 25.0 °F 72% 30.23 in 10.0 mi NNE 3.5 mph - N/A   Clear
5:13 AM 32.0 °F - 26.6 °F 80% 30.23 in 10.0 mi Calm Calm - N/A   Mostly Cloudy
5:53 AM 36.0 °F 31.1 °F 30.0 °F 79% 30.23 in 10.0 mi NE 5.8 mph - N/A   Overcast
6:03 AM 35.6 °F 31.7 °F 30.2 °F 81% 30.23 in 10.0 mi NE 4.6 mph - N/A   Overcast
6:53 AM 37.0 °F 31.0 °F 28.9 °F 73% 30.23 in 10.0 mi ENE 8.1 mph - N/A   Overcast
7:53 AM 37.9 °F 30.9 °F 30.0 °F 73% 30.23 in 10.0 mi East 10.4 mph - N/A   Overcast
8:53 AM 39.9 °F 33.9 °F 30.9 °F 70% 30.24 in 10.0 mi East 9.2 mph - N/A   Overcast
9:53 AM 44.1 °F 39.5 °F 34.0 °F 68% 30.23 in 10.0 mi East 8.1 mph - N/A   Overcast
10:53 AM 48.0 °F - 37.9 °F 68% 30.20 in 10.0 mi East 6.9 mph - N/A   Overcast
11:53 AM 52.0 °F - 39.9 °F 63% 30.17 in 10.0 mi ESE 9.2 mph - N/A   Mostly Cloudy
12:53 PM 57.9 °F - 43.0 °F 58% 30.12 in 10.0 mi ESE 10.4 mph - N/A   Clear
1:53 PM 61.0 °F - 46.0 °F 58% 30.10 in 10.0 mi SE 12.7 mph - N/A   Clear
2:53 PM 63.0 °F - 46.0 °F 54% 30.07 in 10.0 mi SE 13.8 mph - N/A   Clear
3:53 PM 63.0 °F - 46.9 °F 56% 30.06 in 10.0 mi SSE 11.5 mph - N/A   Clear
4:53 PM 59.0 °F - 46.9 °F 64% 30.06 in 10.0 mi SE 6.9 mph - N/A   Clear
5:53 PM 53.1 °F - 46.0 °F 77% 30.04 in 10.0 mi ESE 6.9 mph - N/A   Clear
6:53 PM 52.0 °F - 45.0 °F 77% 30.03 in 10.0 mi ESE 8.1 mph - N/A   Clear
7:53 PM 48.0 °F - 44.1 °F 86% 30.03 in 10.0 mi SE 6.9 mph - N/A   Clear
8:53 PM 50.0 °F - 46.0 °F 86% 30.06 in 8.0 mi SE 5.8 mph - N/A   Mostly Cloudy
9:53 PM 52.0 °F - 46.0 °F 80% 30.04 in 10.0 mi SE 9.2 mph - N/A   Overcast
10:53 PM 48.9 °F - 45.0 °F 86% 30.02 in 10.0 mi SE 9.2 mph - N/A   Mostly Cloudy
11:53 PM 50.0 °F - 46.9 °F 89% 30.01 in 10.0 mi SE 6.9 mph - N/A   Mostly Cloudy